[[{"header":{"parameterUnit":"m.s-1","parameterCategory":2,"la1":30.2991,"la2":30.254,"lo1":-89.0895,"lo2":-89.0444,"dy":0.0017,"dx":0.0017,"nx":28,"ny":28,"refTime":"2025-01-10T09:00:00:Z","depth":"0","parameterNumber":2,"parameterNumberName":"U-component_of_CURRENTS"},"data":[0,0,0,0,0,0,0,0,0,0,0,0,0,0,0,0,0,0,0,0,0,0,0,0,0,0,0,0,0,0,0,0,0,0,0,0,0,0,0,0,0,0,0,0,0,0,0,0,0,0,0,0,0,0,0,0,0,0,-0.1827,-0.1828,0,-0.1839,-0.1839,-0.1839,-0.1793,-0.1792,-0.1791,-0.179,-0.1761,-0.1761,-0.1761,0,0,0,0,0,0,0,0,0,0,0,0,0,-0.1763,-0.1764,-0.1827,-0.1828,-0.1828,-0.1839,-0.1839,-0.1839,-0.1793,-0.1792,-0.1791,-0.179,-0.1761,-0.1761,-0.1761,0,0,0,0,0,0,0,0,0,0,0,0,0,-0.178,-0.1764,-0.1827,-0.181,-0.1809,-0.1839,-0.1839,-0.1839,-0.1793,-0.1792,-0.1791,-0.1789,-0.1761,-0.1761,-0.1761,-0.1791,0,0,-0.1762,-0.1762,0,0,0,0,0,0,0,0,-0.1779,-0.1782,-0.1812,-0.1811,-0.181,-0.1817,-0.1806,-0.1822,-0.1794,-0.1795,-0.179,-0.1789,-0.178,-0.1778,-0.1778,-0.1789,-0.1788,-0.1762,-0.1762,-0.1762,-0.1762,0,0,0,0,0,0,0,-0.1778,-0.1781,-0.1827,-0.1813,-0.1812,-0.1802,-0.1802,-0.1808,-0.1791,-0.1794,-0.1792,-0.1801,-0.1778,-0.1778,-0.1777,-0.1788,-0.1762,-0.1762,-0.1762,-0.1762,-0.1813,-0.1814,0,0,0,0,0,0,-0.1787,-0.178,-0.1827,-0.1828,-0.1796,-0.1804,-0.1804,-0.1813,-0.1792,-0.1789,-0.1802,-0.1799,-0.1778,-0.1777,-0.1776,-0.1786,-0.1762,-0.1762,-0.1762,-0.1812,-0.1813,-0.1814,0,0,0,0,0,0,-0.1786,-0.1791,-0.1827,-0.1808,-0.1812,-0.1807,-0.1817,-0.1814,-0.1809,-0.1799,-0.1794,-0.18,-0.1777,-0.1776,-0.1781,-0.1785,-0.1762,-0.1762,-0.181,-0.1812,-0.1814,-0.1822,0,0,0,0,0,0,-0.1784,-0.1791,-0.1795,-0.1809,-0.1814,-0.1839,-0.1818,-0.1815,-0.1819,-0.1814,-0.1796,-0.1792,-0.1776,-0.1781,-0.1781,-0.1785,-0.1762,-0.1808,-0.1811,-0.1813,-0.182,-0.1824,-0.1827,0,0,0,0,0,-0.1782,-0.1793,-0.1796,-0.1801,-0.1822,-0.184,-0.184,-0.1829,-0.182,-0.1819,-0.1811,-0.1792,-0.1796,-0.1782,-0.1782,-0.1786,-0.1807,-0.181,-0.1813,-0.1819,-0.1823,-0.1827,0,0,0,0,0,0,-0.1762,-0.1791,-0.1793,-0.1811,-0.1824,-0.1833,-0.1836,-0.1835,-0.1829,-0.1822,-0.1807,-0.1804,-0.1811,-0.1807,-0.1793,-0.1812,-0.1799,-0.1802,-0.1804,-0.1808,-0.1812,-0.1808,-0.1762,0,0,0,0,0,-0.1765,-0.1781,-0.1805,-0.1817,-0.1827,-0.1834,-0.184,-0.1835,-0.1837,-0.1832,-0.1824,-0.1821,-0.1826,-0.1822,-0.1825,-0.1837,-0.1858,-0.1842,-0.1846,-0.1849,-0.1849,-0.1899,-0.1906,-0.1824,-0.1824,-0.1824,0,0,-0.1762,-0.178,-0.1788,-0.1814,-0.1823,-0.1835,-0.1832,-0.1842,-0.1845,-0.1833,-0.1831,-0.1834,-0.1835,-0.1842,-0.1845,-0.1835,-0.1886,-0.1852,-0.1854,-0.1853,-0.1902,-0.191,-0.1917,-0.1826,-0.1825,-0.1825,0,0,-0.1761,-0.178,-0.1791,-0.1805,-0.1826,-0.1835,-0.1841,-0.1854,-0.185,-0.1862,-0.1854,-0.1867,-0.1867,-0.1871,-0.1873,-0.1905,-0.1906,-0.1901,-0.1909,-0.1957,-0.1964,-0.1971,-0.2016,-0.2026,-0.1899,-0.1899,-0.1899,0,-0.1753,-0.1769,-0.1795,-0.1808,-0.1817,-0.1837,-0.1843,-0.1853,-0.1863,-0.1865,-0.186,-0.1886,-0.1885,-0.1904,-0.1906,-0.1912,-0.1935,-0.1887,-0.1961,-0.1968,-0.1974,-0.2019,-0.203,-0.19,-0.1899,-0.1899,-0.1899,0,-0.1759,-0.1769,-0.1778,-0.1801,-0.1817,-0.1826,-0.1851,-0.1861,-0.1867,-0.1876,-0.1899,-0.1912,-0.1922,-0.1931,-0.1922,-0.1963,-0.1965,-0.1962,-0.1946,-0.1982,-0.2028,-0.2039,-0.1901,-0.19,-0.19,-0.19,0,0,-0.1735,-0.1774,-0.1773,-0.1777,-0.1811,-0.1822,-0.1843,-0.1863,-0.187,-0.1895,-0.1915,-0.1935,-0.1942,-0.1947,-0.1952,-0.1992,-0.2057,-0.1987,-0.1989,-0.2024,-0.2163,-0.2014,-0.2012,-0.2062,-0.2064,-0.2065,-0.2179,0,-0.1722,-0.1739,-0.1764,-0.1772,-0.1781,-0.1811,-0.1824,-0.1847,-0.1869,-0.1897,-0.1935,-0.1951,-0.1948,-0.1952,-0.1995,-0.2045,-0.2086,-0.2026,-0.2129,-0.2132,-0.1988,-0.2019,-0.1849,-0.1922,-0.2191,-0.2192,-0.2194,0,-0.1706,-0.1722,-0.1729,-0.175,-0.1756,-0.1767,-0.1794,-0.1807,-0.1857,-0.1872,-0.1913,-0.1942,-0.2003,-0.1998,-0.2111,-0.207,-0.2111,-0.2154,-0.216,-0.2021,-0.2003,-0.1929,-0.1933,-0.1893,-0.2211,-0.221,-0.2209,0,-0.1661,-0.1687,-0.169,-0.1699,-0.1735,-0.1741,-0.1756,-0.1794,-0.18,-0.1859,-0.1883,-0.1958,-0.2004,-0.2078,-0.2155,-0.2136,-0.2287,-0.2277,-0.2189,-0.218,-0.2054,-0.2029,-0.2019,-0.2356,-0.2356,-0.2355,-0.2355,0,-0.1628,-0.1624,-0.1669,-0.167,-0.1663,-0.1704,-0.17,-0.1725,-0.177,-0.1788,-0.186,-0.1908,-0.2026,-0.212,-0.2179,-0.2213,-0.2309,-0.2192,-0.2195,-0.2051,-0.2025,-0.1997,-0.2031,-0.236,-0.2359,-0.2358,-0.2357,0,-0.1565,-0.1598,-0.1598,-0.1636,-0.1639,-0.1632,-0.1649,-0.1651,-0.1703,-0.1743,-0.1763,-0.1889,-0.2004,-0.2114,-0.2255,-0.2225,-0.223,-0.2276,-0.2089,-0.2063,-0.1866,-0.1907,-0.1947,-0.1896,-0.2178,-0.2174,-0.2172,0,-0.1532,-0.1528,-0.1556,-0.155,-0.1562,-0.156,-0.1552,-0.1597,-0.161,-0.173,-0.1753,-0.1884,-0.1959,-0.2097,-0.2088,-0.2144,-0.2174,-0.1983,-0.1891,-0.1821,-0.1875,-0.1923,-0.1882,-0.1759,-0.1753,-0.1748,-0.1744,0,-0.1458,-0.1472,-0.1475,-0.1466,-0.1461,-0.1448,-0.1457,-0.1462,-0.1535,-0.16,-0.1709,-0.1786,-0.1884,-0.1853,-0.1874,-0.1882,-0.1873,-0.1879,-0.1876,-0.1586,-0.1577,-0.1537,-0.1734,-0.1702,-0.1706,-0.1709,-0.1712,-0.1713,-0.1388,-0.1371,-0.1376,-0.1361,-0.1357,-0.1336,-0.1299,-0.1352,-0.1381,-0.1459,-0.1599,-0.1669,-0.1634,-0.1624,-0.1618,-0.145,-0.1597,-0.137,-0.1447,-0.1519,-0.1385,-0.146,-0.1371,-0.1373,-0.1375,-0.1377,-0.1378,0,-0.1288,-0.1278,-0.1265,-0.1239,-0.1203,-0.1232,-0.1226,-0.12,-0.123,-0.1328,-0.1411,-0.1406,-0.1308,-0.1287,-0.1124,-0.1037,-0.104,-0.1031,-0.1082,-0.1076,-0.1186,-0.1072,-0.0828,-0.0828,-0.0828,-0.0828,-0.0828,-0.0828,-0.1229,-0.1184,-0.1183,-0.1092,-0.1074,-0.0992,-0.0973,-0.098,-0.1016,-0.1068,-0.1101,-0.1163,-0.1154,-0.1108,-0.0936,-0.0862,-0.0889,-0.0834,-0.0944,-0.1023,-0.1062,-0.1098,-0.0995,-0.0739,-0.0739,-0.0732,-0.0732,-0.0732]},{"header":{"parameterUnit":"m.s-1","parameterCategory":2,"la1":30.2991,"la2":30.254,"lo1":-89.0895,"lo2":-89.0444,"dy":0.0017,"dx":0.0017,"nx":28,"ny":28,"refTime":"2025-01-10T09:00:00:Z","depth":"0","parameterNumber":3,"parameterNumberName":"V-component_of_CURRENTS"},"data":[0,0,0,0,0,0,0,0,0,0,0,0,0,0,0,0,0,0,0,0,0,0,0,0,0,0,0,0,0,0,0,0,0,0,0,0,0,0,0,0,0,0,0,0,0,0,0,0,0,0,0,0,0,0,0,0,0,0,-0.0546,-0.0546,0,-0.0522,-0.0521,-0.052,-0.0454,-0.0453,-0.0452,-0.0451,-0.0344,-0.0342,-0.0341,0,0,0,0,0,0,0,0,0,0,0,0,0,-0.0494,-0.0496,-0.0546,-0.0546,-0.0546,-0.0522,-0.0521,-0.052,-0.0454,-0.0453,-0.0452,-0.045,-0.0345,-0.0343,-0.034,0,0,0,0,0,0,0,0,0,0,0,0,0,-0.0495,-0.0496,-0.0546,-0.0513,-0.051,-0.0522,-0.0521,-0.052,-0.0455,-0.0453,-0.0451,-0.045,-0.0346,-0.0343,-0.034,-0.0356,0,0,-0.0332,-0.0331,0,0,0,0,0,0,0,0,-0.0495,-0.0496,-0.0518,-0.0515,-0.0512,-0.0492,-0.0464,-0.0462,-0.0455,-0.0472,-0.0451,-0.0449,-0.039,-0.0383,-0.0378,-0.0351,-0.0346,-0.0332,-0.033,-0.0329,-0.0328,0,0,0,0,0,0,0,-0.0495,-0.0497,-0.0532,-0.0518,-0.0514,-0.0486,-0.0484,-0.0463,-0.0436,-0.047,-0.0466,-0.047,-0.0387,-0.0381,-0.0375,-0.0345,-0.0332,-0.0329,-0.0327,-0.0326,-0.0301,-0.0302,0,0,0,0,0,0,-0.051,-0.0497,-0.0533,-0.0532,-0.0503,-0.0488,-0.0486,-0.0497,-0.0438,-0.0429,-0.0471,-0.0467,-0.0387,-0.0378,-0.0371,-0.0385,-0.0329,-0.0326,-0.0325,-0.03,-0.0301,-0.0302,0,0,0,0,0,0,-0.0509,-0.0514,-0.0534,-0.0516,-0.0517,-0.0492,-0.0504,-0.0498,-0.0489,-0.044,-0.0428,-0.0469,-0.0385,-0.0375,-0.0357,-0.038,-0.0325,-0.0322,-0.0299,-0.03,-0.0302,-0.0413,0,0,0,0,0,0,-0.0508,-0.0514,-0.0523,-0.0518,-0.0519,-0.0557,-0.0506,-0.0499,-0.0496,-0.0489,-0.0435,-0.0423,-0.0383,-0.0362,-0.0354,-0.0375,-0.032,-0.0297,-0.0299,-0.0301,-0.0408,-0.0418,-0.0427,0,0,0,0,0,-0.0506,-0.054,-0.0523,-0.0527,-0.0534,-0.0559,-0.0557,-0.0529,-0.0497,-0.0511,-0.0466,-0.0425,-0.0367,-0.0361,-0.0352,-0.0372,-0.0297,-0.0299,-0.0301,-0.0404,-0.0416,-0.0427,0,0,0,0,0,0,-0.0522,-0.0536,-0.0518,-0.0552,-0.0558,-0.0549,-0.0562,-0.0538,-0.0515,-0.0502,-0.0441,-0.0428,-0.0421,-0.0383,-0.0377,-0.0369,-0.0324,-0.0325,-0.0405,-0.0416,-0.0425,-0.044,-0.0318,0,0,0,0,0,-0.0532,-0.0558,-0.0561,-0.0587,-0.0596,-0.0576,-0.0579,-0.0564,-0.0546,-0.0534,-0.0495,-0.0452,-0.0426,-0.041,-0.0382,-0.0383,-0.0329,-0.0388,-0.0397,-0.0405,-0.0411,-0.0363,-0.0369,-0.0309,-0.0309,-0.0309,0,0,-0.0543,-0.0555,-0.0567,-0.0592,-0.0591,-0.0624,-0.0574,-0.0594,-0.0608,-0.0527,-0.053,-0.0487,-0.0434,-0.0433,-0.0425,-0.0402,-0.0391,-0.0408,-0.0416,-0.0416,-0.0366,-0.0372,-0.0377,-0.0311,-0.031,-0.031,0,0,-0.0593,-0.0594,-0.0634,-0.0651,-0.0666,-0.0661,-0.0671,-0.0667,-0.0652,-0.0655,-0.0596,-0.057,-0.0533,-0.0501,-0.0478,-0.0523,-0.0444,-0.051,-0.0568,-0.0523,-0.0527,-0.0531,-0.046,-0.0456,-0.0513,-0.0513,-0.0513,0,-0.0602,-0.0653,-0.0649,-0.0695,-0.0716,-0.0684,-0.0731,-0.0723,-0.0708,-0.0699,-0.067,-0.0613,-0.0568,-0.0558,-0.0569,-0.0545,-0.0494,-0.0533,-0.0535,-0.0538,-0.0539,-0.0466,-0.046,-0.0519,-0.0518,-0.0517,-0.0517,0,-0.0682,-0.0722,-0.0753,-0.0797,-0.0819,-0.0859,-0.0855,-0.0858,-0.083,-0.0809,-0.0792,-0.0734,-0.0694,-0.068,-0.0636,-0.0629,-0.0579,-0.0556,-0.051,-0.0552,-0.0472,-0.0464,-0.0527,-0.0525,-0.0523,-0.0522,0,0,-0.0706,-0.0791,-0.08,-0.0839,-0.0877,-0.0906,-0.0935,-0.0949,-0.0954,-0.0925,-0.0929,-0.088,-0.083,-0.0801,-0.0743,-0.0704,-0.0664,-0.0638,-0.0633,-0.0573,-0.054,-0.0463,-0.0445,-0.0639,-0.0639,-0.0638,-0.0476,0,-0.0765,-0.0873,-0.0895,-0.0985,-0.104,-0.1031,-0.1061,-0.1062,-0.1038,-0.1032,-0.0968,-0.0946,-0.0881,-0.0857,-0.0814,-0.0703,-0.065,-0.0708,-0.0503,-0.0497,-0.0428,-0.0437,-0.0408,-0.0257,-0.0467,-0.0466,-0.0465,0,-0.0828,-0.0897,-0.1001,-0.1082,-0.1103,-0.1145,-0.1175,-0.1194,-0.1171,-0.1148,-0.1113,-0.1052,-0.0992,-0.0933,-0.077,-0.0808,-0.0684,-0.0594,-0.0586,-0.047,-0.0406,-0.025,-0.0234,-0.0087,-0.0452,-0.0453,-0.0454,0,-0.085,-0.0964,-0.1049,-0.1082,-0.1167,-0.1198,-0.1226,-0.1225,-0.1234,-0.1212,-0.1208,-0.1128,-0.1077,-0.0941,-0.0746,-0.0754,-0.0554,-0.0539,-0.035,-0.0342,-0.0254,-0.0239,-0.0077,-0.0422,-0.0422,-0.0423,-0.0423,0,-0.0903,-0.0968,-0.1068,-0.1119,-0.1202,-0.1241,-0.1296,-0.1302,-0.1311,-0.1328,-0.1262,-0.125,-0.1076,-0.0939,-0.0769,-0.0525,-0.0561,-0.0354,-0.0299,-0.029,-0.0281,-0.0098,-0.0047,-0.0417,-0.0418,-0.0419,-0.042,0,-0.0908,-0.0975,-0.1078,-0.1187,-0.1217,-0.1271,-0.1343,-0.1378,-0.1378,-0.14,-0.1396,-0.1318,-0.114,-0.0936,-0.0693,-0.0538,-0.0217,-0.0224,-0.021,-0.0158,0.0137,0.0179,0.0403,0.0497,-0.0001,0.0001,0.0004,0,-0.0923,-0.0979,-0.1115,-0.1174,-0.1225,-0.1306,-0.1359,-0.1398,-0.1433,-0.1439,-0.1453,-0.1309,-0.1203,-0.0816,-0.0513,-0.0186,-0.0079,0.0037,0.0018,0.0167,0.0254,0.0274,0.0336,0.0102,0.0105,0.0107,0.0109,0,-0.0944,-0.0987,-0.1073,-0.1191,-0.1273,-0.1363,-0.1441,-0.1478,-0.152,-0.1542,-0.1528,-0.1447,-0.1082,-0.0725,-0.0288,-0.0092,0.0139,0.0098,0.0242,0.0342,0.0384,0.0495,-0.0003,0.0131,0.0128,0.0127,0.0126,0.0125,-0.0943,-0.1001,-0.1107,-0.1208,-0.1308,-0.1405,-0.1461,-0.1539,-0.1595,-0.1603,-0.1543,-0.1374,-0.0882,-0.0277,-0.0063,0.0398,0.0354,0.053,0.0571,0.0581,0.0659,0.0222,0.0417,0.0416,0.0416,0.0416,0.0415,0,-0.0945,-0.1011,-0.1114,-0.1247,-0.1343,-0.1393,-0.1507,-0.1556,-0.1621,-0.1549,-0.1498,-0.098,-0.0484,-0.0015,0.061,0.0851,0.088,0.0961,0.0983,0.1026,0.0643,0.0635,0.0897,0.0896,0.0896,0.0896,0.0896,0.0896,-0.0951,-0.1033,-0.109,-0.1235,-0.1326,-0.1436,-0.1493,-0.1574,-0.1536,-0.1364,-0.1087,-0.0864,-0.0226,0.0644,0.1183,0.1245,0.1408,0.1402,0.1498,0.1213,0.1175,0.1138,0.1144,0.1507,0.1508,0.1859,0.1862,0.1865]}],[{"header":{"parameterUnit":"m.s-1","parameterCategory":2,"la1":30.2991,"la2":30.254,"lo1":-89.0895,"lo2":-89.0444,"dy":0.0017,"dx":0.0017,"nx":28,"ny":28,"refTime":"2025-01-10T09:00:00:Z","depth":"2","parameterNumber":2,"parameterNumberName":"U-component_of_CURRENTS"},"data":[0,0,0,0,0,0,0,0,0,0,0,0,0,0,0,0,0,0,0,0,0,0,0,0,0,0,0,0,0,0,0,0,0,0,0,0,0,0,0,0,0,0,0,0,0,0,0,0,0,0,0,0,0,0,0,0,0,0,-0.1852,-0.1854,0,-0.1971,-0.1972,-0.1973,-0.1952,-0.195,-0.1948,-0.1947,-0.192,-0.192,-0.1921,0,0,0,0,0,0,0,0,0,0,0,0,0,-0.1725,-0.1726,-0.1852,-0.1854,-0.1856,-0.1971,-0.1972,-0.1973,-0.1952,-0.195,-0.1948,-0.1946,-0.1919,-0.192,-0.1921,0,0,0,0,0,0,0,0,0,0,0,0,0,-0.1801,-0.1727,-0.1851,-0.1862,-0.1864,-0.1971,-0.1972,-0.1974,-0.1952,-0.195,-0.1947,-0.1945,-0.1919,-0.192,-0.1922,-0.1981,0,0,-0.1926,-0.1926,0,0,0,0,0,0,0,0,-0.1797,-0.1805,-0.1859,-0.1862,-0.1865,-0.1948,-0.1918,-0.197,-0.1953,-0.1914,-0.1946,-0.1944,-0.192,-0.1922,-0.1945,-0.1979,-0.1978,-0.1926,-0.1926,-0.1927,-0.1927,0,0,0,0,0,0,0,-0.1791,-0.1801,-0.1894,-0.1861,-0.1865,-0.1903,-0.1909,-0.1929,-0.1924,-0.1917,-0.1917,-0.1939,-0.192,-0.1944,-0.1944,-0.1978,-0.1926,-0.1927,-0.1928,-0.1928,-0.2011,-0.2013,0,0,0,0,0,0,-0.1783,-0.1795,-0.1891,-0.1898,-0.1829,-0.1907,-0.1914,-0.192,-0.1927,-0.1928,-0.1941,-0.1937,-0.1943,-0.1943,-0.1943,-0.1958,-0.1927,-0.1928,-0.1929,-0.201,-0.2012,-0.2013,0,0,0,0,0,0,-0.1779,-0.1789,-0.1886,-0.1854,-0.1869,-0.1911,-0.1919,-0.1924,-0.1944,-0.1947,-0.1944,-0.1955,-0.1941,-0.1941,-0.1951,-0.1958,-0.1929,-0.193,-0.2008,-0.201,-0.2012,-0.2022,0,0,0,0,0,0,-0.1775,-0.1787,-0.179,-0.1853,-0.1871,-0.1951,-0.1922,-0.1928,-0.1963,-0.1959,-0.1959,-0.1954,-0.1939,-0.1949,-0.1952,-0.1959,-0.1931,-0.2006,-0.2009,-0.2012,-0.202,-0.2025,-0.2028,0,0,0,0,0,-0.177,-0.1779,-0.1789,-0.1802,-0.1873,-0.1953,-0.1966,-0.1984,-0.1966,-0.1989,-0.1975,-0.1954,-0.1968,-0.1952,-0.1955,-0.1962,-0.2005,-0.2008,-0.2011,-0.2018,-0.2024,-0.2028,0,0,0,0,0,0,-0.1725,-0.1781,-0.1792,-0.1817,-0.1884,-0.1951,-0.1983,-0.1994,-0.2008,-0.1993,-0.1976,-0.1972,-0.1987,-0.1984,-0.1966,-0.1997,-0.1983,-0.1987,-0.1987,-0.1992,-0.1996,-0.1996,-0.1932,0,0,0,0,0,-0.1721,-0.174,-0.1812,-0.1837,-0.1874,-0.1932,-0.1966,-0.1982,-0.2009,-0.2013,-0.2005,-0.2001,-0.201,-0.2005,-0.2018,-0.2037,-0.2046,-0.2045,-0.2049,-0.2053,-0.2057,-0.2093,-0.21,-0.2024,-0.2024,-0.2024,0,0,-0.172,-0.1748,-0.1764,-0.183,-0.1885,-0.1942,-0.1944,-0.2005,-0.2029,-0.2008,-0.2021,-0.2022,-0.2023,-0.2039,-0.2044,-0.2028,-0.2078,-0.2057,-0.2059,-0.2062,-0.2097,-0.2104,-0.2111,-0.2026,-0.2025,-0.2025,0,0,-0.1737,-0.1753,-0.1787,-0.1839,-0.1919,-0.1954,-0.1973,-0.2038,-0.2044,-0.2075,-0.2058,-0.2068,-0.2078,-0.2079,-0.2081,-0.2124,-0.2108,-0.212,-0.2126,-0.2161,-0.2167,-0.2173,-0.2184,-0.219,-0.211,-0.211,-0.211,0,-0.1732,-0.1769,-0.1815,-0.1865,-0.1901,-0.1958,-0.2006,-0.2041,-0.2087,-0.2091,-0.2075,-0.2104,-0.2102,-0.2124,-0.2124,-0.2133,-0.2136,-0.2101,-0.2165,-0.2171,-0.2176,-0.2186,-0.2193,-0.2111,-0.2111,-0.2111,-0.211,0,-0.1779,-0.1812,-0.1844,-0.1909,-0.1959,-0.2011,-0.2069,-0.2097,-0.2102,-0.2122,-0.2147,-0.2154,-0.2159,-0.2167,-0.2151,-0.2186,-0.217,-0.2172,-0.2146,-0.2184,-0.2192,-0.2199,-0.2112,-0.2112,-0.2111,-0.2111,0,0,-0.1743,-0.1852,-0.1858,-0.1891,-0.1975,-0.2018,-0.2067,-0.2122,-0.2135,-0.2169,-0.2186,-0.2207,-0.2198,-0.2202,-0.2194,-0.2219,-0.2254,-0.2199,-0.22,-0.2199,-0.2307,-0.2146,-0.2138,-0.2256,-0.2258,-0.2259,-0.2293,0,-0.1763,-0.1839,-0.1886,-0.1953,-0.2001,-0.2053,-0.209,-0.2138,-0.2161,-0.219,-0.2215,-0.2225,-0.2215,-0.2202,-0.2233,-0.2262,-0.2274,-0.2243,-0.2281,-0.2282,-0.2126,-0.2142,-0.1951,-0.1952,-0.23,-0.2301,-0.2302,0,-0.1774,-0.1824,-0.1888,-0.1961,-0.1986,-0.2019,-0.2066,-0.2107,-0.2167,-0.218,-0.2207,-0.2225,-0.2267,-0.2249,-0.2317,-0.2292,-0.2291,-0.2312,-0.2314,-0.2165,-0.2134,-0.1975,-0.1951,-0.2314,-0.2313,-0.2312,-0.2311,0,-0.1708,-0.1807,-0.1843,-0.1872,-0.1976,-0.1989,-0.2026,-0.2087,-0.2109,-0.2159,-0.2178,-0.2237,-0.2263,-0.2301,-0.233,-0.232,-0.2406,-0.2402,-0.226,-0.2249,-0.2094,-0.2065,-0.2437,-0.2437,-0.2437,-0.2437,-0.2437,0,-0.1683,-0.1712,-0.1807,-0.1832,-0.1855,-0.1935,-0.1952,-0.1997,-0.2057,-0.2087,-0.2148,-0.2188,-0.2276,-0.2332,-0.2349,-0.2319,-0.2418,-0.2258,-0.2245,-0.2089,-0.206,-0.2384,-0.2377,-0.2438,-0.2438,-0.2438,-0.2438,0,-0.1604,-0.1675,-0.1722,-0.1814,-0.1828,-0.1836,-0.1895,-0.1906,-0.1976,-0.2022,-0.2035,-0.216,-0.2206,-0.2271,-0.2346,-0.2316,-0.2322,-0.2279,-0.207,-0.2029,-0.2137,-0.2131,-0.2124,-0.2119,-0.2114,-0.2111,-0.2107,0,-0.1576,-0.1591,-0.1675,-0.1685,-0.1717,-0.1741,-0.1751,-0.1834,-0.1857,-0.2002,-0.2021,-0.2097,-0.2117,-0.216,-0.2118,-0.2086,-0.2196,-0.1888,-0.1821,-0.2116,-0.2106,-0.2107,-0.2107,-0.1636,-0.1629,-0.1624,-0.1619,0,-0.1512,-0.1533,-0.1568,-0.1587,-0.1597,-0.1619,-0.1649,-0.1667,-0.1781,-0.1849,-0.1956,-0.199,-0.1983,-0.186,-0.1781,-0.1752,-0.1874,-0.1765,-0.2161,-0.1718,-0.165,-0.1642,-0.166,-0.1569,-0.1574,-0.1578,-0.1581,-0.1583,-0.1439,-0.1434,-0.1466,-0.147,-0.1485,-0.1491,-0.1477,-0.155,-0.1605,-0.1684,-0.1797,-0.1774,-0.1741,-0.1499,-0.1429,-0.1366,-0.1502,-0.1442,-0.1462,-0.1488,-0.1399,-0.1323,-0.1165,-0.1168,-0.117,-0.1172,-0.1173,0,-0.1346,-0.1342,-0.1344,-0.1355,-0.133,-0.1373,-0.1399,-0.1393,-0.1444,-0.1494,-0.154,-0.1353,-0.12,-0.1173,-0.0977,-0.0929,-0.0968,-0.0894,-0.0948,-0.0995,-0.1038,-0.093,-0.057,-0.0569,-0.0567,-0.0566,0,0,-0.1294,-0.1264,-0.1268,-0.1203,-0.1195,-0.114,-0.1138,-0.1174,-0.1188,-0.119,-0.1142,-0.1155,-0.1129,-0.0857,-0.0777,-0.0644,-0.0828,-0.0605,-0.1083,-0.1194,-0.1236,-0.1335,-0.1218,0,0,0,0,0]},{"header":{"parameterUnit":"m.s-1","parameterCategory":2,"la1":30.2991,"la2":30.254,"lo1":-89.0895,"lo2":-89.0444,"dy":0.0017,"dx":0.0017,"nx":28,"ny":28,"refTime":"2025-01-10T09:00:00:Z","depth":"2","parameterNumber":3,"parameterNumberName":"V-component_of_CURRENTS"},"data":[0,0,0,0,0,0,0,0,0,0,0,0,0,0,0,0,0,0,0,0,0,0,0,0,0,0,0,0,0,0,0,0,0,0,0,0,0,0,0,0,0,0,0,0,0,0,0,0,0,0,0,0,0,0,0,0,0,0,-0.0007,-0.0006,0,0.0057,0.0058,0.0059,0.008,0.008,0.0079,0.0079,0.0119,0.012,0.0122,0,0,0,0,0,0,0,0,0,0,0,0,0,-0.0051,-0.0051,-0.0007,-0.0006,-0.0006,0.0057,0.0058,0.0059,0.008,0.008,0.0079,0.0079,0.0118,0.012,0.0122,0,0,0,0,0,0,0,0,0,0,0,0,0,-0.0013,-0.0051,-0.0007,0.0011,0.0013,0.0057,0.0058,0.0059,0.008,0.008,0.0079,0.0079,0.0118,0.012,0.0122,0.0148,0,0,0.0129,0.013,0,0,0,0,0,0,0,0,-0.0015,-0.0011,0.0008,0.001,0.0013,0.0059,0.0057,0.0087,0.0081,0.0057,0.0079,0.0078,0.0096,0.01,0.0116,0.015,0.0151,0.0129,0.013,0.0131,0.0132,0,0,0,0,0,0,0,-0.0018,-0.0013,0.002,0.0009,0.0012,0.0037,0.0041,0.0063,0.008,0.0059,0.006,0.0065,0.0097,0.0114,0.0117,0.0152,0.0129,0.0131,0.0132,0.0133,0.0157,0.0156,0,0,0,0,0,0,-0.0031,-0.0016,0.0018,0.0022,-0.0005,0.0038,0.0043,0.0046,0.008,0.0085,0.0065,0.0066,0.011,0.0114,0.0118,0.0079,0.0131,0.0133,0.0134,0.0157,0.0156,0.0156,0,0,0,0,0,0,-0.0033,-0.0029,0.0015,0.0003,0.001,0.0038,0.0042,0.0047,0.0037,0.0085,0.0089,0.0046,0.011,0.0115,0.0106,0.0083,0.0134,0.0136,0.0158,0.0157,0.0156,0.0046,0,0,0,0,0,0,-0.0034,-0.003,-0.0029,0.0002,0.001,0.0008,0.0043,0.0049,0.0042,0.0042,0.007,0.0075,0.011,0.0103,0.0108,0.0087,0.0138,0.0159,0.0157,0.0156,0.005,0.0041,0.0033,0,0,0,0,0,-0.0036,-0.0018,-0.0029,-0.0025,0.001,0.0006,0.0011,0.0032,0.0041,0.0023,0.0043,0.0073,0.01,0.0103,0.011,0.0089,0.0159,0.0158,0.0156,0.0054,0.0043,0.0034,0,0,0,0,0,0,-0.0034,-0.0013,-0.0025,-0.0003,-0.0023,0.0008,0.001,0.0012,0.0018,0.0014,0.0058,0.0064,0.0058,0.0086,0.0089,0.0095,0.0137,0.0137,0.0057,0.0047,0.0039,0.0027,0.014,0,0,0,0,0,-0.0038,-0.0035,-0.0026,-0.0029,-0.003,-0.0023,-0.002,-0.0023,-0.0012,-0.0011,0.001,0.0037,0.0064,0.006,0.0094,0.0081,0.0132,0.0076,0.0068,0.006,0.0056,0.0097,0.0091,0.0151,0.0151,0.0151,0,0,-0.0053,-0.0034,-0.0041,-0.0032,-0.0036,-0.0052,-0.0023,-0.0041,-0.0053,-0.0007,-0.0016,0.001,0.0058,0.0055,0.0054,0.0066,0.0074,0.0058,0.0051,0.0052,0.0095,0.0089,0.0084,0.015,0.015,0.015,0,0,-0.0083,-0.0059,-0.0076,-0.0085,-0.0099,-0.0087,-0.0105,-0.0102,-0.0096,-0.0111,-0.0068,-0.007,-0.0036,-0.0012,0.0009,-0.0029,0.0038,-0.0018,-0.0087,-0.0049,-0.0054,-0.0057,0.0014,0.0018,-0.0036,-0.0036,-0.0037,0,-0.0103,-0.011,-0.0089,-0.0106,-0.0111,-0.0112,-0.0143,-0.0133,-0.0139,-0.014,-0.0131,-0.009,-0.0062,-0.0055,-0.0072,-0.005,-0.0005,-0.0057,-0.0061,-0.0064,-0.0066,0.0008,0.0014,-0.0042,-0.0041,-0.0041,-0.004,0,-0.0141,-0.0159,-0.0168,-0.0188,-0.0197,-0.0221,-0.0213,-0.0226,-0.022,-0.0216,-0.0216,-0.0181,-0.0166,-0.0154,-0.0128,-0.0132,-0.0086,-0.0068,-0.0041,-0.0079,0.0002,0.001,-0.005,-0.0048,-0.0046,-0.0045,0,0,-0.0172,-0.0188,-0.0205,-0.0239,-0.0235,-0.0263,-0.0266,-0.0277,-0.0301,-0.0293,-0.0314,-0.0277,-0.0277,-0.0252,-0.0223,-0.0202,-0.0178,-0.0159,-0.0154,-0.0096,-0.007,-0.0041,-0.0028,-0.0167,-0.0167,-0.0166,-0.0003,0,-0.0222,-0.0268,-0.0255,-0.0333,-0.0358,-0.0344,-0.035,-0.0365,-0.0362,-0.0383,-0.0345,-0.0356,-0.0306,-0.0325,-0.0292,-0.0209,-0.0165,-0.0222,-0.0033,-0.0027,-0.0005,-0.0022,-0.004,0.0103,0.0005,0.0006,0.0007,0,-0.027,-0.0292,-0.036,-0.0405,-0.0416,-0.0462,-0.0488,-0.0495,-0.0494,-0.0492,-0.0493,-0.0468,-0.0442,-0.0401,-0.0262,-0.0303,-0.0197,-0.0119,-0.011,-0.0042,0.0014,0.0124,0.0121,0.0021,0.002,0.0019,0.0018,0,-0.0315,-0.0373,-0.0431,-0.0447,-0.0486,-0.0526,-0.0542,-0.0549,-0.0558,-0.0582,-0.0613,-0.0556,-0.0548,-0.0418,-0.0267,-0.0269,-0.0095,-0.0071,0.0073,0.0079,0.0123,0.0131,0.0041,0.0041,0.0041,0.004,0.004,0,-0.0353,-0.0411,-0.0477,-0.0518,-0.0586,-0.0603,-0.0671,-0.0668,-0.0692,-0.0726,-0.0695,-0.0711,-0.0558,-0.0448,-0.0288,-0.0084,-0.01,0.0066,0.0113,0.0086,0.0089,0.0061,0.0061,0.0046,0.0045,0.0044,0.0043,0,-0.0397,-0.0433,-0.0515,-0.0593,-0.0614,-0.0678,-0.0734,-0.0787,-0.08,-0.0847,-0.0865,-0.0818,-0.0663,-0.0469,-0.0246,-0.0118,0.0077,0.0161,0.0133,0.0172,0.024,0.0232,0.0339,0.0341,0.0343,0.0345,0.0346,0,-0.0421,-0.046,-0.057,-0.0629,-0.0678,-0.0757,-0.0803,-0.0828,-0.0875,-0.0907,-0.0936,-0.0834,-0.0715,-0.0375,-0.0143,0.0166,0.0168,0.0302,0.0287,0.0231,0.0266,0.0256,0.0246,0.0324,0.0325,0.0326,0.0327,0,-0.0448,-0.0496,-0.0569,-0.0674,-0.0769,-0.0834,-0.0909,-0.0952,-0.0987,-0.1018,-0.1003,-0.0911,-0.0608,-0.0307,0.0049,0.0218,0.0245,0.0329,0.0279,0.0233,0.0225,0.0256,0.0246,0.0334,0.0333,0.0333,0.0332,0.0332,-0.0477,-0.0532,-0.063,-0.0725,-0.0822,-0.0908,-0.0959,-0.1017,-0.1058,-0.1057,-0.0988,-0.0804,-0.0561,-0.0028,0.0183,0.0361,0.0366,0.0426,0.042,0.0414,0.0365,0.0357,0.0486,0.0486,0.0486,0.0486,0.0486,0,-0.0492,-0.0559,-0.066,-0.0784,-0.0868,-0.0914,-0.1022,-0.1054,-0.1089,-0.1,-0.0905,-0.0583,-0.0255,0.0012,0.0297,0.0462,0.0441,0.0497,0.0432,0.0425,0.0418,0.0365,0.0489,0.0489,0.049,0.049,0,0,-0.0512,-0.0601,-0.0648,-0.0781,-0.0865,-0.0961,-0.1021,-0.1059,-0.1013,-0.0897,-0.0729,-0.0502,-0.0203,0.0003,0.0203,0.0351,0.0342,0.0369,0.0352,0.0244,0.0235,0.0368,0.0278,0,0,0,0,0]}],[{"header":{"parameterUnit":"m.s-1","parameterCategory":2,"la1":30.2991,"la2":30.254,"lo1":-89.0895,"lo2":-89.0444,"dy":0.0017,"dx":0.0017,"nx":28,"ny":28,"refTime":"2025-01-10T09:00:00:Z","depth":"4","parameterNumber":2,"parameterNumberName":"U-component_of_CURRENTS"},"data":[0,0,0,0,0,0,0,0,0,0,0,0,0,0,0,0,0,0,0,0,0,0,0,0,0,0,0,0,0,0,0,0,0,0,0,0,0,0,0,0,0,0,0,0,0,0,0,0,0,0,0,0,0,0,0,0,0,0,-0.1068,-0.1068,0,-0.1094,-0.1094,-0.1094,-0.1131,-0.1132,-0.1133,-0.1133,-0.1183,-0.1184,-0.1185,0,0,0,0,0,0,0,0,0,0,0,0,0,-0.1017,-0.1017,-0.1068,-0.1068,-0.1068,-0.1094,-0.1094,-0.1094,-0.1131,-0.1132,-0.1133,-0.1134,-0.1183,-0.1184,-0.1185,0,0,0,0,0,0,0,0,0,0,0,0,0,-0.1039,-0.1018,-0.1067,-0.1091,-0.1093,-0.1094,-0.1094,-0.1094,-0.1131,-0.1132,-0.1133,-0.1134,-0.1183,-0.1184,-0.1185,-0.1168,0,0,-0.1188,-0.1188,0,0,0,0,0,0,0,0,-0.1038,-0.1041,-0.1087,-0.1089,-0.1092,-0.1111,-0.1094,-0.1121,-0.113,-0.1115,-0.1133,-0.1135,-0.1161,-0.1164,-0.1165,-0.1171,-0.1173,-0.1188,-0.1188,-0.1189,-0.1189,0,0,0,0,0,0,0,-0.1036,-0.104,-0.1077,-0.1087,-0.109,-0.1089,-0.1093,-0.1099,-0.1131,-0.1117,-0.112,-0.1124,-0.1163,-0.1164,-0.1166,-0.1174,-0.1188,-0.1189,-0.1189,-0.119,-0.1252,-0.1253,0,0,0,0,0,0,-0.1036,-0.1038,-0.1076,-0.1078,-0.1068,-0.1089,-0.1094,-0.1103,-0.1131,-0.1136,-0.1123,-0.1126,-0.1161,-0.1165,-0.1168,-0.1222,-0.1189,-0.119,-0.119,-0.1251,-0.1252,-0.1253,0,0,0,0,0,0,-0.1035,-0.1039,-0.1075,-0.1059,-0.1064,-0.1089,-0.1098,-0.1103,-0.1119,-0.1136,-0.1142,-0.1137,-0.1162,-0.1167,-0.1195,-0.1221,-0.119,-0.1191,-0.125,-0.1251,-0.1253,-0.1283,0,0,0,0,0,0,-0.1033,-0.1039,-0.1053,-0.1059,-0.1065,-0.1089,-0.1098,-0.1103,-0.112,-0.1124,-0.1149,-0.1154,-0.1164,-0.1194,-0.1196,-0.1222,-0.1192,-0.1248,-0.125,-0.1252,-0.1281,-0.1286,-0.129,0,0,0,0,0,-0.1032,-0.1044,-0.1053,-0.1058,-0.1081,-0.1089,-0.1092,-0.1112,-0.112,-0.113,-0.1152,-0.1154,-0.1209,-0.1195,-0.1198,-0.1225,-0.1247,-0.125,-0.1252,-0.1279,-0.1285,-0.129,0,0,0,0,0,0,-0.1028,-0.1049,-0.106,-0.1079,-0.109,-0.1097,-0.111,-0.1116,-0.1138,-0.115,-0.1161,-0.1167,-0.1203,-0.1207,-0.1191,-0.125,-0.1231,-0.1234,-0.125,-0.1256,-0.126,-0.1249,-0.1193,0,0,0,0,0,-0.1033,-0.105,-0.1065,-0.108,-0.1089,-0.1099,-0.1108,-0.112,-0.1136,-0.1147,-0.1165,-0.1188,-0.1211,-0.1228,-0.1245,-0.127,-0.1274,-0.1292,-0.1296,-0.13,-0.1293,-0.1339,-0.1347,-0.1261,-0.1261,-0.1261,0,0,-0.1033,-0.1049,-0.1058,-0.108,-0.1092,-0.1103,-0.1108,-0.1126,-0.1142,-0.1148,-0.1183,-0.1201,-0.122,-0.1256,-0.1272,-0.1265,-0.1325,-0.1303,-0.1306,-0.1297,-0.1342,-0.135,-0.1358,-0.1263,-0.1263,-0.1262,0,0,-0.1033,-0.1059,-0.1071,-0.1084,-0.1107,-0.1116,-0.1123,-0.1141,-0.1162,-0.1187,-0.1204,-0.1236,-0.1264,-0.1289,-0.1303,-0.1338,-0.1344,-0.1352,-0.1369,-0.1414,-0.1421,-0.1428,-0.1434,-0.1441,-0.1358,-0.1358,-0.1358,0,-0.1033,-0.1051,-0.1074,-0.1086,-0.1099,-0.1122,-0.1132,-0.1154,-0.118,-0.1204,-0.1206,-0.1263,-0.1279,-0.1325,-0.1342,-0.1348,-0.1364,-0.1347,-0.142,-0.1426,-0.1432,-0.1438,-0.1445,-0.136,-0.136,-0.136,-0.1359,0,-0.1036,-0.1056,-0.1064,-0.1091,-0.1108,-0.1123,-0.1153,-0.1183,-0.1208,-0.1231,-0.1284,-0.1304,-0.1343,-0.1356,-0.1358,-0.1415,-0.1407,-0.1417,-0.1404,-0.1443,-0.1446,-0.1452,-0.1363,-0.1362,-0.1361,-0.1361,0,0,-0.1012,-0.1057,-0.106,-0.1073,-0.1114,-0.1123,-0.1168,-0.121,-0.125,-0.1281,-0.1328,-0.1364,-0.1385,-0.1401,-0.1417,-0.1448,-0.1499,-0.1453,-0.1454,-0.1455,-0.1579,-0.1453,-0.1448,-0.1533,-0.1534,-0.1536,-0.156,0,-0.1004,-0.1026,-0.1055,-0.1077,-0.1089,-0.1134,-0.1175,-0.1223,-0.1272,-0.1329,-0.1365,-0.1417,-0.1402,-0.1434,-0.1462,-0.1496,-0.1521,-0.149,-0.1545,-0.1545,-0.1426,-0.1453,-0.1541,-0.1565,-0.1566,-0.1567,-0.1568,0,-0.0993,-0.1008,-0.103,-0.1077,-0.109,-0.1109,-0.1185,-0.1223,-0.1315,-0.1364,-0.1421,-0.1462,-0.1512,-0.1499,-0.1558,-0.1544,-0.1561,-0.1574,-0.1576,-0.1449,-0.1431,-0.1522,-0.158,-0.1579,-0.1579,-0.1578,-0.1577,0,-0.0955,-0.0991,-0.1009,-0.1022,-0.1081,-0.1105,-0.1139,-0.1229,-0.1278,-0.1389,-0.1443,-0.1512,-0.1553,-0.1588,-0.1607,-0.1604,-0.166,-0.1664,-0.1557,-0.1548,-0.1642,-0.1635,-0.1706,-0.1706,-0.1706,-0.1706,-0.1706,0,-0.093,-0.0942,-0.0991,-0.0996,-0.1017,-0.1075,-0.1122,-0.1185,-0.1286,-0.1338,-0.145,-0.1493,-0.1584,-0.1625,-0.1632,-0.1598,-0.1684,-0.1551,-0.1549,-0.1652,-0.1646,-0.1646,-0.1638,-0.1707,-0.1707,-0.1707,-0.1707,0,-0.088,-0.0919,-0.093,-0.0983,-0.0996,-0.1006,-0.1078,-0.1116,-0.1239,-0.131,-0.1351,-0.1495,-0.1545,-0.1604,-0.1665,-0.1614,-0.1611,-0.1581,-0.1666,-0.167,-0.1461,-0.1455,-0.1462,-0.1458,-0.1454,-0.1451,-0.1449,0,-0.0853,-0.086,-0.0898,-0.0894,-0.0909,-0.0937,-0.0956,-0.1067,-0.1107,-0.1279,-0.1295,-0.1416,-0.1485,-0.1469,-0.1539,-0.1546,-0.1531,-0.1518,-0.1495,-0.144,-0.1438,-0.1438,-0.1437,-0.1443,-0.1442,-0.1441,-0.144,0,-0.0795,-0.0821,-0.0829,-0.0819,-0.082,-0.0832,-0.0866,-0.0895,-0.1025,-0.1141,-0.122,-0.1281,-0.1335,-0.1386,-0.1408,-0.1409,-0.1522,-0.1481,-0.1488,-0.1467,-0.1417,-0.1419,-0.1422,-0.1428,-0.143,-0.1431,-0.1432,0,-0.0749,-0.0733,-0.0751,-0.0734,-0.0736,-0.0731,-0.0761,-0.0803,-0.0865,-0.1055,-0.1059,-0.1197,-0.1303,-0.1312,-0.1323,-0.1323,-0.1305,-0.1265,-0.1283,-0.1298,-0.1233,-0.1146,-0.1065,0,0,0,0,0,-0.0696,-0.0678,-0.0662,-0.0641,-0.0645,-0.065,-0.0707,-0.0753,-0.0868,-0.0882,-0.098,-0.1026,-0.1091,-0.1161,-0.1128,-0.1241,-0.1302,-0.1196,-0.1263,-0.136,-0.1374,-0.1314,0,0,0,0,0,0,-0.0656,-0.0648,-0.0639,-0.0579,-0.0551,-0.0547,-0.0583,-0.066,-0.0681,-0.081,-0.085,-0.0943,-0.1017,-0.1091,-0.1102,-0.1118,-0.1134,-0.1267,-0.1264,-0.1352,-0.1364,-0.1376,-0.1319,0,0,0,0,0]},{"header":{"parameterUnit":"m.s-1","parameterCategory":2,"la1":30.2991,"la2":30.254,"lo1":-89.0895,"lo2":-89.0444,"dy":0.0017,"dx":0.0017,"nx":28,"ny":28,"refTime":"2025-01-10T09:00:00:Z","depth":"4","parameterNumber":3,"parameterNumberName":"V-component_of_CURRENTS"},"data":[0,0,0,0,0,0,0,0,0,0,0,0,0,0,0,0,0,0,0,0,0,0,0,0,0,0,0,0,0,0,0,0,0,0,0,0,0,0,0,0,0,0,0,0,0,0,0,0,0,0,0,0,0,0,0,0,0,0,0.0328,0.0329,0,0.042,0.042,0.0421,0.0452,0.0452,0.0451,0.0451,0.0501,0.0502,0.0504,0,0,0,0,0,0,0,0,0,0,0,0,0,0.022,0.0221,0.0328,0.0329,0.033,0.0419,0.042,0.0422,0.0452,0.0452,0.0451,0.0451,0.05,0.0502,0.0504,0,0,0,0,0,0,0,0,0,0,0,0,0,0.0283,0.0222,0.0328,0.0358,0.0361,0.0419,0.0421,0.0422,0.0452,0.0452,0.0451,0.0451,0.05,0.0502,0.0504,0.0526,0,0,0.0511,0.0512,0,0,0,0,0,0,0,0,0.0279,0.0287,0.0352,0.0356,0.036,0.0425,0.0401,0.0455,0.0452,0.0416,0.0451,0.0451,0.0473,0.0478,0.0494,0.0528,0.053,0.0511,0.0513,0.0514,0.0515,0,0,0,0,0,0,0,0.0275,0.0283,0.0362,0.0353,0.0358,0.038,0.0388,0.0411,0.0443,0.0419,0.0422,0.0435,0.0475,0.0491,0.0495,0.0531,0.0511,0.0513,0.0515,0.0516,0.0575,0.0575,0,0,0,0,0,0,0.0265,0.0279,0.036,0.0365,0.032,0.0383,0.0392,0.0403,0.0444,0.0451,0.0435,0.0436,0.0488,0.0492,0.0497,0.0517,0.0514,0.0516,0.0517,0.0575,0.0575,0.0575,0,0,0,0,0,0,0.0263,0.0272,0.0356,0.0325,0.0338,0.0385,0.0398,0.0405,0.0429,0.0457,0.0462,0.0451,0.0488,0.0494,0.0515,0.0519,0.0517,0.0519,0.0574,0.0575,0.0575,0.0562,0,0,0,0,0,0,0.0259,0.027,0.0276,0.0325,0.0339,0.0392,0.0399,0.0407,0.0438,0.044,0.0473,0.0477,0.0488,0.0511,0.0517,0.0523,0.0521,0.0574,0.0575,0.0575,0.0563,0.0562,0.0562,0,0,0,0,0,0.0255,0.0269,0.0276,0.0286,0.0346,0.0393,0.0402,0.0433,0.0439,0.0452,0.0467,0.0476,0.0517,0.0513,0.052,0.0526,0.0574,0.0574,0.0575,0.0563,0.0562,0.0562,0,0,0,0,0,0,0.0228,0.0275,0.0283,0.0311,0.0348,0.0398,0.042,0.0437,0.0462,0.0464,0.0482,0.0487,0.0505,0.0519,0.0515,0.0544,0.0546,0.0548,0.0535,0.0534,0.0534,0.0525,0.0523,0,0,0,0,0,0.0223,0.0245,0.029,0.0313,0.0333,0.0376,0.0399,0.042,0.045,0.0462,0.0481,0.0499,0.0513,0.0526,0.0541,0.0563,0.0564,0.0571,0.057,0.057,0.0567,0.0577,0.0577,0.0576,0.0576,0.0576,0,0,0.022,0.0248,0.0261,0.0308,0.0342,0.0368,0.0389,0.0429,0.0441,0.0462,0.0484,0.05,0.0517,0.0535,0.0545,0.0549,0.0568,0.0571,0.057,0.0567,0.0577,0.0577,0.0577,0.0577,0.0577,0.0577,0,0,0.0232,0.025,0.0276,0.0302,0.0351,0.0372,0.0382,0.0432,0.0445,0.047,0.048,0.0499,0.0529,0.054,0.0548,0.0558,0.0562,0.0564,0.0561,0.0571,0.0571,0.0571,0.0557,0.0556,0.0568,0.0568,0.0568,0,0.0225,0.0259,0.029,0.0319,0.0334,0.037,0.0391,0.0413,0.0458,0.0463,0.0473,0.051,0.0529,0.0543,0.0545,0.0557,0.0555,0.0561,0.057,0.057,0.057,0.0556,0.0555,0.0568,0.0568,0.0568,0.0568,0,0.0253,0.0279,0.0298,0.0334,0.0352,0.0379,0.0406,0.0421,0.0436,0.0456,0.0476,0.0503,0.0523,0.0534,0.0544,0.0556,0.055,0.0564,0.0569,0.0569,0.0554,0.0553,0.0567,0.0567,0.0567,0.0567,0,0,0.0236,0.0303,0.0307,0.032,0.0358,0.0373,0.0387,0.0408,0.0408,0.0448,0.0453,0.0488,0.0504,0.0515,0.0534,0.0549,0.0548,0.0558,0.0559,0.054,0.0551,0.0525,0.0521,0.0565,0.0565,0.0565,0.0534,0,0.0246,0.0297,0.0317,0.0339,0.0365,0.0376,0.0377,0.0393,0.0408,0.042,0.0453,0.0466,0.0496,0.0504,0.0525,0.0543,0.0548,0.0554,0.0557,0.0556,0.0531,0.0521,0.0566,0.0533,0.0533,0.0533,0.0533,0,0.0256,0.0291,0.0327,0.0339,0.0346,0.0351,0.0342,0.0348,0.0368,0.0379,0.0407,0.0431,0.046,0.0484,0.0515,0.0518,0.053,0.0545,0.0545,0.0525,0.053,0.0537,0.0531,0.0531,0.0531,0.0532,0.0532,0,0.0232,0.0278,0.0302,0.0312,0.0343,0.0338,0.0333,0.0341,0.0334,0.0355,0.0355,0.0397,0.0406,0.0446,0.0479,0.0498,0.0501,0.0531,0.0515,0.0512,0.0551,0.0551,0.0544,0.0544,0.0544,0.0544,0.0544,0,0.0225,0.024,0.0295,0.0312,0.0309,0.032,0.0302,0.0306,0.0303,0.029,0.0333,0.0327,0.0398,0.0413,0.0457,0.0471,0.0481,0.0505,0.0505,0.0544,0.0544,0.0549,0.055,0.0543,0.0543,0.0544,0.0544,0,0.02,0.0242,0.0277,0.0312,0.031,0.0307,0.0282,0.027,0.0264,0.0248,0.0252,0.0269,0.0279,0.0333,0.0377,0.0422,0.0453,0.0452,0.046,0.0463,0.0464,0.0465,0.0442,0.0441,0.044,0.0439,0.0438,0,0.0198,0.0221,0.0274,0.0295,0.0313,0.0302,0.0288,0.0262,0.0244,0.0207,0.0198,0.0192,0.0211,0.0229,0.0304,0.0367,0.0385,0.0406,0.047,0.0452,0.0455,0.0457,0.0459,0.0437,0.0436,0.0436,0.0436,0,0.0196,0.0221,0.0254,0.0305,0.0311,0.0295,0.0269,0.0237,0.0196,0.0188,0.013,0.0146,0.0142,0.0194,0.0228,0.0287,0.0407,0.0397,0.0401,0.0461,0.0446,0.045,0.0453,0.0433,0.0433,0.0433,0.0434,0,0.0193,0.0221,0.0279,0.0313,0.0329,0.0307,0.027,0.0221,0.018,0.0123,0.0096,0.0095,0.0094,0.0149,0.0189,0.0235,0.0272,0.0324,0.0332,0.0336,0.0331,0.0298,0.023,0,0,0,0,0,0.0197,0.0238,0.0279,0.0328,0.0341,0.0342,0.028,0.0235,0.017,0.0118,0.0099,0.0089,0.012,0.0131,0.0169,0.0213,0.0311,0.0266,0.0382,0.0414,0.0418,0.0429,0,0,0,0,0,0,0.021,0.0254,0.0289,0.0338,0.0365,0.0358,0.0314,0.0255,0.0208,0.0146,0.0143,0.0136,0.0156,0.0103,0.0184,0.0198,0.0285,0.0276,0.0278,0.0412,0.0416,0.0419,0.0432,0,0,0,0,0]}]]